Theta_e
323 324 326 328 330 332 332 332 334 338 339 339 339 339 338 337 335 327 324 325 327 330 331 327 328 333 332 330 331 333 332 331
325 324 327 328 331 331 331 331 334 338 340 340 339 339 338 338 331 327 324 323 327 331 329 326 327 332 331 331 330 330 331 330
332 325 327 329 331 332 332 332 333 339 338 340 340 340 339 338 333 326 327 325 326 327 326 329 330 332 328 330 329 330 330 329
335 329 327 331 332 335 336 335 336 340 337 341 341 339 339 339 336 328 327 327 328 327 328 330 324 325 326 330 328 328 330 329
337 334 327 329 333 335 337 338 336 339 338 340 341 340 340 339 336 327 327 327 328 325 328 328 326 325 326 328 327 327 329 329
341 339 332 328 332 334 336 339 338 339 338 340 339 341 340 339 337 332 328 327 328 325 329 329 327 327 327 325 327 327 330 329
342 343 342 333 331 332 334 336 339 337 337 340 342 340 340 339 337 334 331 327 328 327 330 330 328 327 327 328 328 326 329 329
343 344 344 342 336 335 335 335 335 336 336 338 340 343 341 340 338 335 333 328 329 329 331 330 328 326 327 327 327 327 328 327
345 344 345 345 342 339 340 339 337 335 335 336 340 339 340 340 338 336 335 332 330 331 332 330 327 327 325 326 326 326 326 325
342 345 345 345 344 343 342 342 341 339 339 338 337 339 340 340 340 337 336 335 333 333 331 330 328 327 327 327 326 325 325 323
332 344 345 345 345 344 343 343 342 341 342 342 340 340 341 340 340 338 337 335 334 333 331 329 329 328 327 326 324 324 324 322
325 343 346 346 345 344 343 343 342 341 341 342 341 341 340 341 340 339 337 335 333 332 331 330 327 326 325 323 323 324 323 322
337 344 346 346 343 343 342 342 342 341 341 340 341 341 341 341 340 338 337 335 333 331 330 328 326 325 326 325 324 323 322 322
326 326 328 339 341 340 339 341 341 342 341 338 340 340 339 340 339 337 336 334 332 331 330 327 326 325 326 326 325 324 322 322
329 330 331 332 332 331 337 340 340 340 339 340 338 338 340 340 337 337 335 334 333 331 330 328 327 326 326 325 324 325 322 321
326 326 327 330 333 333 329 338 339 339 338 338 340 338 336 338 338 337 336 334 332 332 331 329 327 326 326 325 324 323 321 321
325 326 326 327 328 332 333 331 331 334 339 338 336 334 333 336 336 336 336 334 333 332 331 328 327 326 326 325 324 322 321 321
320 322 326 327 328 327 327 330 334 333 334 336 336 333 334 334 333 335 337 335 333 332 332 330 328 326 326 326 324 323 322 321
320 322 324 327 328 328 327 326 328 333 334 334 334 334 334 333 333 333 335 335 334 332 331 329 327 326 326 326 325 323 322 321
320 319 319 318 319 323 326 326 326 327 330 331 333 331 331 331 332 333 333 334 333 331 330 330 327 326 325 325 326 324 322 321
Wind_Speed
28 26 24 23 24 24 23 22 22 22 22 22 22 22 21 21 18 15 16 13 13 17 19 17 15 14 15 17 14 14 13 18
30 29 27 26 25 25 24 24 24 24 24 24 23 23 22 22 21 19 15 10 18 21 21 18 15 12 11 15 13 11 17 21
29 29 29 28 27 26 25 24 24 25 24 25 25 25 24 24 24 17 16 15 23 21 20 17 15 15 10 12 14 9 21 19
31 30 30 29 29 28 28 27 26 27 26 25 27 26 26 26 23 19 18 20 23 22 19 18 15 15 15 15 15 13 18 23
33 30 31 31 31 30 29 30 29 29 28 28 28 28 26 27 26 23 21 22 23 21 21 21 19 18 20 16 17 13 22 25
36 33 32 33 33 33 32 32 32 32 30 30 30 31 30 30 30 27 25 25 27 24 25 24 21 20 21 20 19 15 23 25
37 35 33 33 34 33 33 33 31 30 33 31 29 32 34 32 31 30 28 28 28 26 26 24 21 22 22 20 20 18 24 26
38 37 35 35 35 34 34 34 33 31 32 31 34 29 31 33 33 32 31 31 29 27 27 24 21 19 18 15 18 18 26 28
40 40 38 36 36 34 34 34 32 31 31 31 32 33 33 34 34 34 32 31 30 28 26 25 25 22 24 21 15 17 25 29
41 41 41 40 38 37 35 33 31 30 29 30 32 33 32 34 34 35 34 32 32 31 29 28 28 26 21 22 21 20 27 30
35 40 43 43 39 37 33 32 32 30 28 29 30 33 34 34 36 36 34 34 34 33 33 32 30 24 20 20 25 18 28 31
28 37 37 36 36 32 31 30 32 33 33 28 29 33 34 36 38 38 37 36 33 34 34 34 33 29 23 22 19 18 28 33
21 29 30 31 27 25 24 27 29 31 32 34 28 31 34 40 40 39 40 40 37 34 31 33 27 27 20 20 21 18 24 29
27 24 19 18 21 23 24 27 28 33 33 30 36 29 31 36 38 38 40 36 34 35 34 24 20 29 15 13 4 8 20 19
26 23 19 13 8 10 20 19 17 24 29 35 35 34 33 32 35 37 37 39 38 39 37 30 24 26 27 10 3 4 9 21
19 19 16 11 8 3 16 26 20 27 29 31 31 34 33 35 31 35 39 40 37 41 41 39 31 24 29 30 19 9 6 4
20 18 17 12 10 8 4 7 15 16 24 25 28 28 31 34 35 32 37 38 39 39 38 35 35 28 30 28 25 16 28 8
21 19 20 15 9 11 12 8 7 10 17 21 26 28 29 28 31 35 35 36 36 36 37 38 37 30 30 30 32 23 19 16
25 24 24 14 11 11 11 11 9 12 18 23 23 23 24 29 31 31 35 35 36 34 36 36 37 35 34 32 31 30 23 28
24 23 18 14 12 12 7 8 10 11 12 20 22 20 27 30 32 34 35 35 33 33 36 35 35 36 33 34 31 34 30 28
Wind_Direction
167 167 169 170 171 172 173 174 176 175 173 173 177 174 176 175 169 167 163 155 170 173 165 162 154 164 159 155 166 169 179 177
175 175 174 175 177 176 176 177 177 177 177 178 181 180 181 181 176 164 169 167 163 167 168 169 164 158 164 165 178 212 199 175
181 182 182 181 182 181 180 180 179 180 177 182 180 186 186 188 190 176 177 170 169 175 175 175 168 164 180 183 176 177 166 178
186 190 189 186 186 185 184 182 182 185 180 184 187 190 191 191 195 189 182 174 172 176 180 180 190 186 178 191 189 177 189 181
193 194 197 193 191 190 189 188 186 187 185 188 194 191 196 195 195 190 187 182 178 181 185 188 195 196 197 209 194 174 194 184
198 198 198 200 199 196 195 194 192 192 192 191 194 195 198 197 197 195 193 189 188 190 193 194 201 203 203 198 189 170 189 183
205 203 203 203 204 203 203 200 197 198 198 194 193 197 200 201 203 201 199 197 195 195 197 199 201 207 205 198 186 177 190 187
210 210 209 205 206 207 207 210 210 207 206 203 203 199 201 203 206 205 202 204 201 203 197 199 200 216 213 211 182 184 186 184
210 213 211 208 207 212 210 211 213 216 215 213 209 209 208 207 208 208 207 207 208 205 202 200 200 202 202 207 208 194 189 186
214 212 213 213 209 212 213 211 211 212 215 218 219 216 215 210 212 211 210 210 210 205 203 201 201 206 204 203 200 199 195 190
206 204 210 212 209 209 211 215 212 215 213 215 221 222 218 216 215 215 212 211 210 209 206 203 199 199 200 202 189 203 199 191
203 199 206 202 205 208 217 218 217 215 217 216 220 224 223 221 219 217 211 208 206 208 206 203 203 199 202 196 184 207 204 194
153 187 201 203 202 197 207 211 217 218 218 216 220 225 226 225 217 214 209 205 204 203 201 197 192 195 180 193 218 204 200 198
132 134 149 182 207 218 222 223 229 230 222 221 222 223 229 228 223 212 206 199 197 203 199 189 193 193 183 164 190 194 202 205
127 123 120 119 153 213 227 223 226 224 225 227 226 228 230 229 228 223 208 202 197 199 200 189 188 195 198 171 150 203 162 210
102 97 92 98 84 153 219 212 205 220 223 227 228 230 236 233 232 224 213 204 201 202 205 203 192 192 195 205 198 164 169 154
87 78 60 50 53 54 82 233 234 237 222 216 227 227 235 233 230 228 214 204 206 203 202 201 201 195 192 204 215 223 195 171
80 71 55 41 51 38 19 352 305 252 231 215 220 231 230 224 232 232 224 211 206 207 212 210 205 204 200 204 201 204 198 191
91 79 71 66 52 39 18 354 323 261 244 238 231 231 226 223 225 227 221 217 215 217 214 212 211 208 205 206 205 210 208 204
99 96 88 66 53 50 19 345 334 310 276 255 248 247 249 235 229 228 225 217 220 216 212 216 217 212 210 210 212 212 209 201